Weather History for KTUL - May, 2013

Change the Weather History Date:

Wednesday, May 15, 2013

  Actual Average Record
Temperature  
Mean Temperature 73 °F 69 °F  
Max Temperature 76 °F 79 °F 95 °F (1911)
Min Temperature 69 °F 59 °F 35 °F (1907)
Cooling Degree Days 8 5  
Month to date cooling degree days 35 59  
Year to date cooling degree days 71 124  
Growing Degree Days 20 (Base 50)    
Moisture  
Dew Point 63 °F    
Average Humidity 65    
Maximum Humidity 84    
Minimum Humidity 46    
Precipitation  
Precipitation 0.10 in 0.20 in 2.05 in (1910)
Month to date precipitation 1.46 2.79  
Year to date precipitation 10.63 13.38  
Sea Level Pressure  
Sea Level Pressure 29.89 in    
Wind  
Wind Speed 14 mph (SSE)    
Max Wind Speed 20 mph    
Max Gust Speed 24 mph    
Visibility 7 miles    
Events Rain , Thunderstorm    
T = Trace of Precipitation, MM = Missing Value Source: NWS Daily Summary

Daily Weather History Graph

Daily Weather History Graph

Search for Another Location

Airport or City:

Trip Planner

Search our weather history database for the weather conditions in past years. The results will help you decide how hot, cold, wet, or windy it might be!

Date:

Astronomy

May. 15, 2013 Rise Set
Actual Time 6:17 AM CDT 8:23 PM CDT
Civil Twilight 5:48 AM CDT 8:51 PM CDT
Nautical Twilight 5:13 AM CDT 9:26 PM CDT
Astronomical Twilight 4:35 AM CDT 10:04 PM CDT
Moon 10:52 AM CDT (5/15) 12:11 AM CDT (5/15)
Length of Visible Light 15h 03m
Length of Day
14h 06m
Waxing Crescent, 27% of the Moon is Illuminated
May 15
Waxing Crescent
May 17
First Quarter
May 24
Full
May 31
Last Quarter
Jun 8
New

Hourly Weather History & Observations

Time (CDT) Temp. Dew Point Humidity Pressure Visibility Wind Dir Wind Speed Gust Speed Precip Events Conditions
12:53 AM 73.9 °F 52.0 °F 46% 29.93 in 10.0 mi South 15.0 mph - N/A   Clear
1:53 AM 73.0 °F 51.1 °F 46% 29.92 in 10.0 mi South 15.0 mph - N/A   Clear
2:53 AM 71.1 °F 52.0 °F 51% 29.92 in 10.0 mi South 12.7 mph - N/A   Mostly Cloudy
3:53 AM 70.0 °F 53.1 °F 55% 29.91 in 10.0 mi South 12.7 mph - N/A   Scattered Clouds
4:53 AM 70.0 °F 55.0 °F 59% 29.91 in 10.0 mi South 13.8 mph - N/A   Partly Cloudy
5:53 AM 69.1 °F 57.0 °F 65% 29.91 in 10.0 mi South 13.8 mph - N/A   Partly Cloudy
6:53 AM 69.1 °F 60.1 °F 73% 29.92 in 10.0 mi South 13.8 mph - N/A   Mostly Cloudy
7:53 AM 71.1 °F 62.1 °F 73% 29.93 in 10.0 mi South 12.7 mph - N/A   Mostly Cloudy
8:53 AM 73.0 °F 63.0 °F 71% 29.93 in 9.0 mi South 11.5 mph - N/A   Mostly Cloudy
9:53 AM 73.0 °F 64.0 °F 73% 29.94 in 8.0 mi South 16.1 mph - N/A   Mostly Cloudy
10:27 AM 73.9 °F 64.0 °F 71% 29.95 in 8.0 mi South 15.0 mph - N/A   Overcast
10:53 AM 73.0 °F 64.9 °F 76% 29.94 in 6.0 mi South 13.8 mph - 0.00 in Rain Light Rain
11:53 AM 75.0 °F 64.9 °F 71% 29.94 in 9.0 mi South 16.1 mph - N/A   Overcast
12:53 PM 73.9 °F 64.9 °F 73% 29.94 in 8.0 mi South 13.8 mph - N/A   Overcast
1:27 PM 72.0 °F 66.0 °F 81% 29.95 in 5.0 mi South 12.7 mph - 0.00 in Rain Light Rain
1:46 PM 71.1 °F 66.9 °F 87% 29.94 in 1.8 mi South 10.4 mph - 0.03 in Rain Heavy Rain
1:53 PM 71.1 °F 66.9 °F 87% 29.93 in 2.5 mi South 8.1 mph - 0.06 in Rain Light Rain
2:33 PM 71.1 °F 66.9 °F 87% 29.93 in 2.5 mi South 10.4 mph - 0.00 in Rain Light Rain
2:53 PM 71.1 °F 66.0 °F 84% 29.91 in 5.0 mi SSE 11.5 mph - 0.01 in Rain Light Rain
3:53 PM 70.0 °F 66.0 °F 87% 29.88 in 7.0 mi SE 11.5 mph - 0.01 in   Overcast
4:03 PM 71.1 °F 66.0 °F 84% 29.90 in 7.0 mi SE 9.2 mph - N/A   Overcast
4:16 PM 71.6 °F 66.2 °F 83% 29.89 in 7.0 mi SE 10.4 mph - N/A   Mostly Cloudy
4:33 PM 71.1 °F 66.0 °F 84% 29.88 in 7.0 mi SE 13.8 mph - N/A   Overcast
4:50 PM 71.6 °F 64.4 °F 78% 29.88 in 8.0 mi SSE 13.8 mph - N/A   Overcast
4:53 PM 71.1 °F 66.0 °F 84% 29.86 in 7.0 mi SSE 10.4 mph - 0.00 in Rain Light Rain
5:48 PM 71.6 °F 64.4 °F 78% 29.86 in 8.0 mi South 9.2 mph - 0.00 in   Overcast
5:53 PM 72.0 °F 64.9 °F 78% 29.84 in 5.0 mi SE 9.2 mph - 0.00 in Rain Light Rain
6:53 PM 71.1 °F 66.0 °F 84% 29.83 in 8.0 mi ESE 8.1 mph - 0.01 in   Overcast
7:48 PM 69.8 °F 66.2 °F 88% 29.85 in 4.0 mi East 8.1 mph - 0.03 in Rain , Thunderstorm Light Thunderstorms and Rain
7:51 PM 69.8 °F 66.2 °F 88% 29.85 in 2.5 mi East 8.1 mph - 0.03 in Rain , Thunderstorm Thunderstorms and Rain
7:53 PM 69.1 °F 66.0 °F 90% 29.83 in 2.5 mi East 9.2 mph - 0.03 in Rain , Thunderstorm Thunderstorms and Rain
8:37 PM 66.0 °F 62.1 °F 87% 29.86 in 3.0 mi SE 19.6 mph - 0.13 in Rain , Thunderstorm Light Thunderstorms and Rain
8:53 PM 64.9 °F 62.1 °F 90% 29.84 in 3.0 mi SSE 15.0 mph - 0.19 in Rain , Thunderstorm Thunderstorms and Rain
9:12 PM 64.9 °F 63.0 °F 93% 29.85 in 3.0 mi SE 17.3 mph - 0.05 in Rain Rain
9:53 PM 64.9 °F 63.0 °F 93% 29.80 in 7.0 mi ESE 15.0 mph - 0.09 in Rain Light Rain
10:37 PM 66.0 °F 63.0 °F 90% 29.81 in 9.0 mi SE 20.7 mph 26.5 mph 0.00 in   Overcast
10:53 PM 66.0 °F 63.0 °F 90% 29.80 in 10.0 mi SSE 19.6 mph 26.5 mph 0.00 in   Overcast
11:19 PM 66.0 °F 61.0 °F 84% 29.81 in 10.0 mi SSE 13.8 mph 23.0 mph N/A   Overcast
11:53 PM 64.9 °F 61.0 °F 87% 29.78 in 10.0 mi SSE 13.8 mph 23.0 mph N/A   Overcast